This is the latest recevied weather packets stored in our database for station/object 4S6DRJ-13. If no packets are shown the sender has not sent any weather packets the latest 10 day(s).
| Time | Temp. | Humidity | Pressure | Rain* | Wind** | Luminosity | Snow |
|---|---|---|---|---|---|---|---|
| 1788418451 | 31.11° C | 71% | 1008.8 hPa | 0 mm | 0.89 m/s, 49° | 464 W/m² | - |
| 1788418390 | 31.11° C | 70% | 1009.1 hPa | 0 mm | 2.68 m/s, 308° | 410 W/m² | - |
| 1788418330 | 31.11° C | 72% | 1009.1 hPa | 0 mm | 2.68 m/s, 236° | 385 W/m² | - |
| 1788418268 | 31.11° C | 71% | 1009.2 hPa | 0 mm | 2.24 m/s, 308° | 730 W/m² | - |
| 1788418207 | 31.11° C | 71% | 1009.2 hPa | 0 mm | 1.79 m/s, 116° | 664 W/m² | - |
| 1788418159 | 31.11° C | 71% | 1009.1 hPa | 0 mm | 2.24 m/s, 203° | 1137 W/m² | - |
| 1788418085 | 31.11° C | 70% | 1009.2 hPa | 0 mm | 3.58 m/s, 251° | 853 W/m² | - |
| 1788418023 | 30.56° C | 72% | 1009.1 hPa | 0 mm | 2.68 m/s, 190° | 636 W/m² | - |
| 1788417963 | 30.56° C | 73% | 1009.2 hPa | 0 mm | 1.79 m/s, 285° | 1111 W/m² | - |
| 1788417901 | 30.56° C | 72% | 1009.1 hPa | 0 mm | 3.13 m/s, 251° | 1140 W/m² | - |
| 1788417841 | 30.56° C | 73% | 1009.3 hPa | 0 mm | 1.79 m/s, 337° | 1138 W/m² | - |
| 1788417779 | 30.56° C | 72% | 1009.3 hPa | 0 mm | 2.68 m/s, 220° | 1142 W/m² | - |
| 1788417719 | 30.56° C | 72% | 1009.1 hPa | 0 mm | 1.34 m/s, 69° | 354 W/m² | - |
| 1788417658 | 30.56° C | 72% | 1009.2 hPa | 0 mm | 4.02 m/s, 323° | 359 W/m² | - |
| 1788417597 | 30.56° C | 71% | 1009.1 hPa | 0 mm | 2.68 m/s, 258° | 1143 W/m² | - |
| 1788417536 | 30.56° C | 72% | 1009.1 hPa | 0 mm | 2.68 m/s, 328° | 1140 W/m² | - |
| 1788417475 | 31.11° C | 72% | 1009.1 hPa | 0 mm | 2.24 m/s, 261° | 567 W/m² | - |
| 1788417413 | 31.11° C | 71% | 1009.3 hPa | 0 mm | 3.13 m/s, 321° | 328 W/m² | - |
| 1788417353 | 31.11° C | 72% | 1009 hPa | 0 mm | 1.79 m/s, 335° | 295 W/m² | - |
| 1788417292 | 31.11° C | 71% | 1009.3 hPa | 0 mm | 1.34 m/s, 276° | 1139 W/m² | - |
| 1788417231 | 31.11° C | 70% | 1009.2 hPa | 0 mm | 4.02 m/s, 320° | 1138 W/m² | - |
| 1788417170 | 31.67° C | 70% | 1009.3 hPa | 0 mm | 4.02 m/s, 232° | 278 W/m² | - |
| 1788417109 | 31.67° C | 71% | 1009.3 hPa | 0 mm | 0.89 m/s, 198° | 284 W/m² | - |
| 1788417048 | 31.67° C | 70% | 1009.4 hPa | 0 mm | 2.24 m/s, 201° | 284 W/m² | - |
| 1788416987 | 31.67° C | 71% | 1009.3 hPa | 0 mm | 0.89 m/s, 79° | 323 W/m² | - |
* Rain latest hour (hover to see other rain measurements)
** Current wind speed in m/s (hover to see current wind gust speed)